Change the Weather History Date:

Monday, September 16, 2013

  Actual Average Record
Temperature  
Mean Temperature 74 °F 72 °F  
Max Temperature 87 °F 83 °F 100 °F (1921)
Min Temperature 61 °F 60 °F 39 °F (1916)
Degree Days  
Heating Degree Days 0 0  
Month to date heating degree days 0 0  
Since 1 July heating degree days 0 0  
Cooling Degree Days 9 7  
Month to date cooling degree days 223 154  
Year to date cooling degree days 1823 1700  
Growing Degree Days 24 (Base 50)    
Moisture  
Dew Point 61 °F    
Average Humidity 64    
Maximum Humidity 84    
Minimum Humidity 43    
Precipitation  
Precipitation 0.00 in 0.09 in 3.24 in (1995)
Month to date precipitation 0.24 1.59  
Year to date precipitation 37.69 32.70  
Snow  
Snow 0.00 in 0.00 in - ()
Month to date snowfall 0.0 0.0  
Since 1 July snowfall 0.0 0.0  
Since 1 September snowfall 0.0 0.0  
Snow Depth 0.00 in    
Sea Level Pressure  
Sea Level Pressure 30.13 in    
Wind  
Wind Speed 7 mph (NE)    
Max Wind Speed 15 mph    
Max Gust Speed 20 mph    
Visibility 10 miles    
Events      
T = Trace of Precipitation, MM = Missing Value Source: NWS Daily Summary

Daily Weather History Graph

Daily Weather History Graph

Search for Another Location

Airport or City:

Trip Planner

Search our weather history database for the weather conditions in past years. The results will help you decide how hot, cold, wet, or windy it might be!

Date:

Astronomy

Sep. 16, 2013 Rise Set
Actual Time 6:46 AM CDT 7:07 PM CDT
Civil Twilight 6:20 AM CDT 7:33 PM CDT
Nautical Twilight 5:50 AM CDT 8:03 PM CDT
Astronomical Twilight 5:19 AM CDT 8:33 PM CDT
Moon 5:13 PM CDT (9/16) 3:37 AM CDT (9/16)
Length of Visible Light 13h 12m
Length of Day
12h 21m
Waxing Gibbous, 90% of the Moon is Illuminated
Sep 16
Waxing Gibbous
Sep 19
Full
Sep 26
Last Quarter
Oct 4
New
Oct 11
First Quarter

Hourly Weather History & Observations

Time (CDT) Temp. Heat Index Dew Point Humidity Pressure Visibility Wind Dir Wind Speed Gust Speed Precip Events Conditions
12:53 AM 66.0 °F - 57.9 °F 75% 30.07 in 10.0 mi Calm Calm - N/A   Clear
1:53 AM 64.0 °F - 57.9 °F 80% 30.07 in 10.0 mi Calm Calm - N/A   Clear
2:53 AM 63.0 °F - 57.0 °F 81% 30.08 in 10.0 mi Calm Calm - N/A   Clear
3:53 AM 62.1 °F - 57.0 °F 84% 30.08 in 10.0 mi Calm Calm - N/A   Clear
4:53 AM 64.0 °F - 55.9 °F 75% 30.09 in 10.0 mi NNE 4.6 mph - N/A   Clear
5:53 AM 63.0 °F - 55.0 °F 75% 30.10 in 10.0 mi NE 5.8 mph - N/A   Clear
6:53 AM 62.1 °F - 55.9 °F 80% 30.12 in 10.0 mi NNE 3.5 mph - N/A   Clear
7:53 AM 68.0 °F - 57.0 °F 68% 30.15 in 10.0 mi NNE 4.6 mph - N/A   Mostly Cloudy
8:53 AM 75.0 °F - 59.0 °F 57% 30.16 in 10.0 mi NE 4.6 mph - N/A   Clear
9:53 AM 75.9 °F - 59.0 °F 56% 30.17 in 10.0 mi NE 6.9 mph - N/A   Scattered Clouds
10:53 AM 81.0 °F 81.3 °F 59.0 °F 47% 30.17 in 10.0 mi ENE 5.8 mph - N/A   Clear
11:53 AM 84.0 °F 83.8 °F 59.0 °F 43% 30.17 in 10.0 mi North 5.8 mph - N/A   Clear
12:53 PM 82.9 °F 83.7 °F 62.1 °F 49% 30.17 in 10.0 mi NE 10.4 mph - N/A   Clear
1:53 PM 84.0 °F 86.3 °F 66.0 °F 55% 30.15 in 10.0 mi ENE 10.4 mph 17.3 mph N/A   Partly Cloudy
2:53 PM 86.0 °F 88.2 °F 66.0 °F 51% 30.14 in 10.0 mi NE 11.5 mph - N/A   Clear
3:53 PM 84.0 °F 86.5 °F 66.9 °F 56% 30.12 in 10.0 mi NE 12.7 mph - N/A   Partly Cloudy
4:53 PM 81.0 °F 83.0 °F 66.0 °F 60% 30.12 in 10.0 mi NNE 11.5 mph - N/A   Clear
5:53 PM 79.0 °F - 66.0 °F 64% 30.12 in 10.0 mi NE 9.2 mph 17.3 mph N/A   Clear
6:53 PM 75.0 °F - 66.0 °F 73% 30.12 in 10.0 mi ENE 9.2 mph - N/A   Clear
7:53 PM 73.9 °F - 66.0 °F 76% 30.13 in 10.0 mi NNE 8.1 mph - N/A   Clear
8:53 PM 72.0 °F - 64.9 °F 78% 30.15 in 10.0 mi NNE 6.9 mph - N/A   Clear
9:53 PM 71.1 °F - 64.0 °F 78% 30.16 in 10.0 mi NNE 6.9 mph - N/A   Clear
10:53 PM 70.0 °F - 64.0 °F 81% 30.16 in 10.0 mi NNE 8.1 mph - N/A   Clear
11:53 PM 70.0 °F - 63.0 °F 78% 30.17 in 10.0 mi North 5.8 mph - N/A   Clear